Kelso, MO

6:39 PM CDT on August 30, 2016 (GMT -0500)
Cape Girardeau Regional

Weather History for KCGI - October, 2012

Change the Weather History Date:

Friday, October 26, 2012

  Actual Average Record
Temperature  
Mean Temperature 45 °F 55 °F  
Max Temperature 49 °F 67 °F 85 °F (1963)
Min Temperature 41 °F 42 °F 29 °F (1982)
Degree Days  
Heating Degree Days 20 11  
Month to date heating degree days 199 198  
Since 1 July heating degree days 245 247  
Cooling Degree Days 0 0  
Month to date cooling degree days 20 29  
Year to date cooling degree days 1784 1451  
Moisture  
Dew Point 38 °F    
Average Humidity 75    
Maximum Humidity 93    
Minimum Humidity 56    
Precipitation  
Precipitation 0.11 in 0.13 in 0.95 in (2011)
Month to date precipitation 2.58 3.15  
Year to date precipitation 23.96 37.48  
Sea Level Pressure  
Sea Level Pressure 30.21 in    
Wind  
Wind Speed 14 mph (North)    
Max Wind Speed 25 mph    
Max Gust Speed 31 mph    
Visibility 9 miles    
Events Rain    
T = Trace of Precipitation, MM = Missing Value Source: NWS Daily Summary

Daily Weather History Graph

Daily Weather History Graph

Search for Another Location

Airport or City:

Trip Planner

Search our weather history database for the weather conditions in past years. The results will help you decide how hot, cold, wet, or windy it might be!

Date:

Astronomy

Oct. 26, 2012 Rise Set
Actual Time 7:17 AM CDT 6:06 PM CDT
Civil Twilight 6:50 AM CDT 6:33 PM CDT
Nautical Twilight 6:19 AM CDT 7:03 PM CDT
Astronomical Twilight 5:49 AM CDT 7:34 PM CDT
Moon 4:19 PM CDT (10/26) 4:16 AM CDT (10/26)
Length of Visible Light 11h 42m
Length of Day
10h 49m
Waxing Gibbous, 91% of the Moon is Illuminated
Oct 26
Waxing Gibbous
Oct 29
Full
Nov 6
Last Quarter
Nov 13
New
Nov 20
First Quarter

Hourly Weather History & Observations

Time (CDT) Temp. Windchill Dew Point Humidity Pressure Visibility Wind Dir Wind Speed Gust Speed Precip Events Conditions
12:27 AM 46.4 °F 40.4 °F 44.6 °F 93% 30.12 in 6.0 mi NW 13.8 mph 26.5 mph 0.04 in Rain Rain
12:48 AM 46.4 °F 40.4 °F 44.6 °F 93% 30.12 in 4.0 mi North 13.8 mph 23.0 mph N/A Rain Heavy Rain
12:53 AM 46.9 °F - 44.1 °F 90% 30.12 in 4.0 mi North 16.1 mph 21.9 mph 0.14 in Rain Rain
1:30 AM 46.4 °F 38.7 °F 44.6 °F 93% 30.13 in 8.0 mi North 20.7 mph 26.5 mph 0.05 in Rain Light Rain
1:43 AM 46.4 °F 39.5 °F 42.8 °F 87% 30.13 in 5.0 mi North 17.3 mph 31.1 mph 0.07 in Rain Rain
1:53 AM 46.0 °F 39.6 °F 43.0 °F 89% 30.13 in 9.0 mi North 15.0 mph 23.0 mph 0.07 in Rain Light Rain
2:13 AM 46.4 °F 40.4 °F 42.8 °F 87% 30.13 in 4.0 mi North 13.8 mph 24.2 mph 0.03 in Rain Rain
2:53 AM 46.0 °F 39.6 °F 42.1 °F 86% 30.14 in 10.0 mi North 15.0 mph 28.8 mph 0.03 in   Overcast
3:53 AM 46.0 °F 38.3 °F 42.1 °F 86% 30.15 in 10.0 mi North 20.7 mph 26.5 mph 0.00 in   Overcast
4:53 AM 46.0 °F 38.5 °F 39.0 °F 76% 30.16 in 10.0 mi North 19.6 mph 26.5 mph N/A   Overcast
5:53 AM 45.0 °F 37.9 °F 39.9 °F 82% 30.20 in 10.0 mi North 16.1 mph 19.6 mph N/A   Overcast
6:53 AM 44.1 °F 36.5 °F 37.0 °F 76% 30.20 in 10.0 mi North 17.3 mph 23.0 mph 0.00 in   Overcast
7:53 AM 43.0 °F 35.1 °F 36.0 °F 76% 30.24 in 10.0 mi North 17.3 mph 28.8 mph N/A   Overcast
8:53 AM 42.1 °F 34.9 °F 37.0 °F 82% 30.26 in 10.0 mi North 13.8 mph - 0.00 in   Overcast
9:53 AM 43.0 °F 35.4 °F 36.0 °F 76% 30.27 in 10.0 mi North 16.1 mph 21.9 mph 0.01 in   Overcast
10:53 AM 42.8 °F 35.4 °F 35.6 °F 76% 30.27 in 10.0 mi North 15.0 mph 27.6 mph N/A   Overcast
11:53 AM 45.0 °F 37.6 °F 35.1 °F 68% 30.27 in 10.0 mi NNE 17.3 mph 23.0 mph N/A   Overcast
12:53 PM 46.0 °F 39.3 °F 35.1 °F 66% 30.26 in 10.0 mi North 16.1 mph 23.0 mph N/A   Overcast
1:22 PM 46.4 °F 39.8 °F 35.6 °F 66% 30.24 in 10.0 mi North 16.1 mph - N/A   Overcast
1:39 PM 46.4 °F 40.7 °F 35.6 °F 66% 30.23 in 10.0 mi North 12.7 mph - N/A   Overcast
1:53 PM 48.0 °F - 35.1 °F 61% 30.24 in 10.0 mi NNE 16.1 mph - N/A   Overcast
2:00 PM 48.2 °F - 35.6 °F 62% 30.23 in 10.0 mi North 16.1 mph 24.2 mph N/A   Overcast
2:53 PM 48.0 °F - 35.1 °F 61% 30.23 in 10.0 mi NNE 18.4 mph - N/A   Overcast
3:53 PM 48.0 °F - 35.1 °F 61% 30.23 in 10.0 mi North 16.1 mph - N/A   Overcast
4:53 PM 48.0 °F - 34.0 °F 58% 30.22 in 10.0 mi North 17.3 mph 25.3 mph N/A   Mostly Cloudy
5:53 PM 46.9 °F - 34.0 °F 61% 30.22 in 10.0 mi North 11.5 mph - N/A   Clear
6:53 PM 44.1 °F 40.1 °F 34.0 °F 68% 30.24 in 10.0 mi North 6.9 mph - N/A   Clear
7:53 PM 44.6 °F 40.2 °F 33.8 °F 66% 30.24 in 10.0 mi North 8.1 mph - N/A   Clear
8:53 PM 43.0 °F 38.2 °F 34.0 °F 71% 30.25 in 10.0 mi North 8.1 mph - N/A   Clear
9:53 PM 43.0 °F 37.2 °F 33.1 °F 68% 30.25 in 10.0 mi North 10.4 mph - N/A   Clear
10:53 PM 41.0 °F 35.2 °F 33.1 °F 73% 30.26 in 10.0 mi North 9.2 mph - N/A   Clear
11:53 PM 42.1 °F 36.6 °F 32.0 °F 67% 30.25 in 10.0 mi North 9.2 mph - N/A   Clear